KESTREL EYE IIM (KE2M)

Last updated on Wed Jul 07 2021 18:13:08 GMT+0000 (Coordinated Universal Time)

1 42982U 98067NE 21188.16473614 .00224537 33053-4 37091-3 0 9991 2 42982 51.6218 86.9056 0002496 202.2567 157.8336 16.02630620211912

Satellite not in orbit